TimeMST,TemperatureF,Dew PointF,Humidity,Sea Level PressureIn,VisibilityMPH,Wind Direction,Wind SpeedMPH,Gust SpeedMPH,PrecipitationIn,Events,Conditions,WindDirDegrees,DateUTC
12:15 AM,1.4,-2.2,85,30.11,10.0,ENE,3.5,-,N/A,,Clear,60,2012-12-12 07:15:00
12:35 AM,-0.4,-9.4,66,30.12,10.0,Calm,Calm,-,N/A,,Clear,0,2012-12-12 07:35:00
12:55 AM,-2.2,-2.2,100,30.12,10.0,Calm,Calm,-,N/A,,Clear,0,2012-12-12 07:55:00
1:15 AM,-2.2,-7.6,78,30.12,10.0,East,3.5,-,N/A,,Clear,80,2012-12-12 08:15:00
1:35 AM,-4.0,-7.6,85,30.12,10.0,Calm,Calm,-,N/A,,Clear,0,2012-12-12 08:35:00
1:55 AM,-0.4,-2.2,92,30.12,10.0,Calm,Calm,-,N/A,,Clear,0,2012-12-12 08:55:00
2:15 AM,-5.8,-14.8,65,30.12,10.0,Calm,Calm,-,N/A,,Clear,0,2012-12-12 09:15:00
2:35 AM,-5.8,-14.8,65,30.12,10.0,Calm,Calm,-,N/A,,Clear,0,2012-12-12 09:35:00
2:55 AM,-5.8,-7.6,92,30.12,10.0,Calm,Calm,-,N/A,,Clear,0,2012-12-12 09:55:00
3:15 AM,-5.8,-14.8,65,30.12,10.0,Calm,Calm,-,N/A,,Clear,0,2012-12-12 10:15:00
3:35 AM,-4.0,-4.0,100,30.11,10.0,Calm,Calm,-,N/A,,Clear,0,2012-12-12 10:35:00
3:55 AM,-5.8,-16.6,60,30.11,10.0,Calm,Calm,-,N/A,,Clear,0,2012-12-12 10:55:00
4:15 AM,-5.8,-5.8,100,30.10,10.0,Calm,Calm,-,N/A,,Clear,0,2012-12-12 11:15:00
4:35 AM,-7.6,-25.6,41,30.10,10.0,East,3.5,-,N/A,,Clear,100,2012-12-12 11:35:00
4:55 AM,-7.6,-29.2,34,30.11,10.0,Calm,Calm,-,N/A,,Clear,0,2012-12-12 11:55:00
5:15 AM,-5.8,-29.2,32,30.11,10.0,Calm,Calm,-,N/A,,Clear,0,2012-12-12 12:15:00
5:35 AM,-7.6,-29.2,34,30.12,10.0,Calm,Calm,-,N/A,,Clear,0,2012-12-12 12:35:00
6:15 AM,-7.6,-22.0,50,30.13,10.0,Calm,Calm,-,N/A,,Clear,0,2012-12-12 13:15:00
6:35 AM,-7.6,-7.6,100,30.14,10.0,ENE,5.8,-,N/A,,Clear,60,2012-12-12 13:35:00
6:55 AM,-7.6,-9999,N/A,30.14,10.0,Calm,Calm,-,N/A,,Clear,0,2012-12-12 13:55:00
7:15 AM,-7.6,-18.4,59,30.14,10.0,Calm,Calm,-,N/A,,Clear,0,2012-12-12 14:15:00
7:35 AM,-11.2,-9999,N/A,30.15,10.0,Calm,Calm,-,N/A,,Clear,0,2012-12-12 14:35:00
7:55 AM,-9.4,-9999,N/A,30.15,10.0,Calm,Calm,-,N/A,,Clear,0,2012-12-12 14:55:00
8:15 AM,-7.6,-27.4,38,30.15,10.0,Calm,Calm,-,N/A,,Clear,0,2012-12-12 15:15:00
8:35 AM,-7.6,-23.8,45,30.15,10.0,Calm,Calm,-,N/A,,Clear,0,2012-12-12 15:35:00
8:55 AM,-4.0,-18.4,50,30.16,5.0,ENE,3.5,-,N/A,,Clear,70,2012-12-12 15:55:00
9:15 AM,-5.8,-18.4,55,30.15,10.0,Calm,Calm,-,N/A,,Clear,0,2012-12-12 16:15:00
9:35 AM,-4.0,-16.6,55,30.16,10.0,Calm,Calm,-,N/A,,Clear,0,2012-12-12 16:35:00
9:55 AM,-0.4,-7.6,72,30.16,10.0,Calm,Calm,-,N/A,,Clear,0,2012-12-12 16:55:00
10:15 AM,1.4,-16.6,43,30.16,10.0,ESE,3.5,-,N/A,,Scattered Clouds,120,2012-12-12 17:15:00
10:35 AM,3.2,-4.0,72,30.15,10.0,Calm,Calm,-,N/A,,Mostly Cloudy,0,2012-12-12 17:35:00
10:55 AM,6.8,-9999,N/A,30.15,10.0,Calm,Calm,-,N/A,,Mostly Cloudy,0,2012-12-12 17:55:00
11:15 AM,6.8,-9.4,48,30.13,10.0,Calm,Calm,-,N/A,,Partly Cloudy,0,2012-12-12 18:15:00
11:35 AM,8.6,-5.8,52,30.12,10.0,Calm,Calm,-,N/A,,Clear,0,2012-12-12 18:35:00
11:55 AM,8.6,-5.8,52,30.11,10.0,Calm,Calm,-,N/A,,Clear,0,2012-12-12 18:55:00
12:15 PM,10.4,-2.2,57,30.11,10.0,SE,3.5,-,N/A,,Clear,130,2012-12-12 19:15:00
12:35 PM,12.2,1.4,62,30.10,10.0,Calm,Calm,-,N/A,,Partly Cloudy,0,2012-12-12 19:35:00
12:55 PM,15.8,3.2,58,30.09,10.0,Calm,Calm,-,N/A,,Mostly Cloudy,0,2012-12-12 19:55:00
1:15 PM,15.8,3.2,58,30.08,10.0,East,3.5,-,N/A,,Overcast,80,2012-12-12 20:15:00
1:35 PM,15.8,5.0,62,30.07,10.0,East,6.9,-,N/A,,Overcast,90,2012-12-12 20:35:00
1:55 PM,15.8,3.2,58,30.07,10.0,Calm,Calm,-,N/A,,Overcast,0,2012-12-12 20:55:00
2:15 PM,15.8,6.8,68,30.06,10.0,Calm,Calm,-,N/A,,Overcast,0,2012-12-12 21:15:00
2:35 PM,17.6,6.8,63,30.06,10.0,East,3.5,-,N/A,,Overcast,80,2012-12-12 21:35:00
2:55 PM,17.6,6.8,63,30.06,10.0,East,3.5,-,N/A,,Overcast,90,2012-12-12 21:55:00
3:15 PM,17.6,8.6,68,30.06,10.0,Calm,Calm,-,N/A,,Scattered Clouds,0,2012-12-12 22:15:00
3:35 PM,17.6,6.8,63,30.06,10.0,SSE,3.5,-,N/A,,Partly Cloudy,150,2012-12-12 22:35:00
3:55 PM,17.6,6.8,63,30.06,10.0,Calm,Calm,-,N/A,,Clear,0,2012-12-12 22:55:00
4:15 PM,15.8,6.8,68,30.06,10.0,Calm,Calm,-,N/A,,Clear,0,2012-12-12 23:15:00
4:35 PM,15.8,6.8,68,30.06,10.0,Calm,Calm,-,N/A,,Scattered Clouds,0,2012-12-12 23:35:00
4:55 PM,17.6,8.6,68,30.06,10.0,Calm,Calm,-,N/A,,Mostly Cloudy,0,2012-12-12 23:55:00
5:15 PM,14.0,3.2,62,30.06,10.0,Calm,Calm,-,N/A,,Scattered Clouds,0,2012-12-13 00:15:00
6:15 PM,14.0,6.8,73,30.07,10.0,ENE,3.5,-,N/A,,Clear,70,2012-12-13 01:15:00
6:35 PM,15.8,8.6,73,30.08,10.0,Calm,Calm,-,N/A,,Partly Cloudy,0,2012-12-13 01:35:00
7:15 PM,14.0,10.4,86,30.09,10.0,Calm,Calm,-,N/A,,Mostly Cloudy,0,2012-12-13 02:15:00
7:35 PM,14.0,5.0,67,30.09,10.0,Calm,Calm,-,N/A,,Mostly Cloudy,0,2012-12-13 02:35:00
7:55 PM,14.0,8.6,79,30.10,10.0,Calm,Calm,-,N/A,,Mostly Cloudy,0,2012-12-13 02:55:00
8:35 PM,15.8,10.4,79,30.10,10.0,Calm,Calm,-,N/A,,Scattered Clouds,0,2012-12-13 03:35:00
8:55 PM,12.2,3.2,67,30.11,10.0,Calm,Calm,-,N/A,,Clear,0,2012-12-13 03:55:00
9:15 PM,12.2,10.4,92,30.11,10.0,Calm,Calm,-,N/A,,Clear,0,2012-12-13 04:15:00
9:35 PM,12.2,6.8,79,30.12,10.0,East,3.5,-,N/A,,Clear,80,2012-12-13 04:35:00
9:55 PM,12.2,6.8,79,30.11,10.0,NE,3.5,-,N/A,,Clear,50,2012-12-13 04:55:00
10:15 PM,12.2,6.8,79,30.12,10.0,Calm,Calm,-,N/A,,Clear,0,2012-12-13 05:15:00
10:35 PM,12.2,6.8,79,30.12,8.0,Calm,Calm,-,N/A,,Clear,0,2012-12-13 05:35:00
10:55 PM,10.4,1.4,67,30.13,10.0,Calm,Calm,-,N/A,,Clear,0,2012-12-13 05:55:00
11:15 PM,10.4,8.6,92,30.13,10.0,ENE,3.5,-,N/A,,Clear,60,2012-12-13 06:15:00
11:35 PM,10.4,-0.4,62,30.13,10.0,ENE,3.5,-,N/A,,Clear,60,2012-12-13 06:35:00
11:55 PM,10.4,8.6,92,30.13,10.0,NE,3.5,-,N/A,,Clear,40,2012-12-13 06:55:00